| time (UTC) | temp F | wind direction | speed MPH | gust MPH | rain 1hr in | rain 24hr in | rain mn in | humidity % | barometer mb |
| 20260901051507 | 76 | 194 | 1.0 | 2.0 | 0.00 | 0.00 | 0.00 | 65 | 1017.4 |
| 20260901050007 | 77 | 194 | 0.0 | 2.0 | 0.00 | 0.00 | 0.00 | 62 | 1017.4 |
| 20260901044509 | 79 | 170 | 0.0 | 2.0 | 0.00 | 0.00 | 0.00 | 57 | 1017.4 |
| 20260901043009 | 80 | 221 | 0.0 | 2.0 | 0.00 | 0.00 | 0.00 | 53 | 1017.4 |
| 20260901041510 | 81 | 211 | 1.0 | 5.0 | 0.00 | 0.00 | 0.00 | 52 | 1017.4 |
| 20260901040009 | 82 | 195 | 0.0 | 4.0 | 0.00 | 0.00 | 0.00 | 51 | 1017.4 |
| 20260901034511 | 82 | 259 | 0.0 | 3.0 | 0.00 | 0.00 | 0.00 | 51 | 1017.7 |
| 20260901033016 | 80 | 256 | 0.0 | 2.0 | 0.00 | 0.00 | 0.00 | 54 | 1017.2 |
| 20260901031509 | 78 | 239 | 0.0 | 0.0 | 0.00 | 0.00 | 0.00 | 64 | 1017.1 |
| 20260901030012 | 78 | 239 | 0.0 | 2.0 | 0.00 | 0.00 | 0.00 | 67 | 1016.9 |
| 20260901024511 | 80 | 211 | 0.0 | 1.0 | 0.00 | 0.00 | 0.00 | 66 | 1016.7 |
| 20260901023013 | 80 | 211 | 0.0 | 0.0 | 0.00 | 0.00 | 0.00 | 62 | 1016.0 |
| 20260901021506 | 81 | 211 | 0.0 | 0.0 | 0.00 | 0.00 | 0.00 | 59 | 1015.6 |
| 20260901020011 | 81 | 211 | 0.0 | 0.0 | 0.00 | 0.00 | 0.00 | 58 | 1015.1 |
| 20260901014515 | 82 | 211 | 0.0 | 0.0 | 0.00 | 0.00 | 0.00 | 59 | 1014.7 |
| 20260901013004 | 84 | 211 | 0.0 | 0.0 | 0.00 | 0.00 | 0.00 | 56 | 1015.0 |
| 20260901011506 | 87 | 211 | 0.0 | 0.0 | 0.00 | 0.00 | 0.00 | 54 | 1015.0 |
| 20260901010009 | 88 | 211 | 0.0 | 0.0 | 0.00 | 0.00 | 0.00 | 50 | 1014.9 |
| 20260901004517 | 90 | 211 | 0.0 | 0.0 | 0.00 | 0.00 | 0.00 | 47 | 1014.8 |
| 20260901003016 | 92 | 211 | 0.0 | 1.0 | 0.00 | 0.00 | 0.00 | 44 | 1014.8 |
| 20260901001504 | 94 | 188 | 0.0 | 3.0 | 0.00 | 0.00 | 0.00 | 39 | 1014.6 |
| 20260901000008 | 94 | 180 | 2.0 | 4.0 | 0.00 | 0.00 | 0.00 | 37 | 1014.7 |
| 20260831234516 | 95 | 210 | 1.0 | 5.0 | 0.00 | 0.00 | 0.00 | 36 | 1014.8 |
| 20260831233017 | 95 | 212 | 3.0 | 8.0 | 0.00 | 0.00 | 0.00 | 35 | 1014.7 |
| 20260831231521 | 96 | 188 | 2.0 | 7.0 | 0.00 | 0.00 | 0.00 | 35 | 1014.8 |
| 20260831230009 | 96 | 198 | 2.0 | 6.0 | 0.00 | 0.00 | 0.00 | 36 | 1015.0 |
| 20260831224512 | 96 | 202 | 0.0 | 6.0 | 0.00 | 0.00 | 0.00 | 37 | 1015.1 |
| 20260831223019 | 96 | 219 | 2.0 | 7.0 | 0.00 | 0.00 | 0.00 | 38 | 1015.1 |
| 20260831221527 | 96 | 234 | 0.0 | 9.0 | 0.00 | 0.00 | 0.00 | 38 | 1015.1 |
| 20260831220027 | 96 | 135 | 3.0 | 4.0 | 0.00 | 0.00 | 0.00 | 38 | 1015.3 |
| 20260831214512 | 95 | 192 | 3.0 | 6.0 | 0.00 | 0.00 | 0.00 | 38 | 1015.5 |
| 20260831213016 | 95 | 209 | 3.0 | 5.0 | 0.00 | 0.00 | 0.00 | 39 | 1015.6 |
| 20260831211525 | 95 | 197 | 3.0 | 5.0 | 0.00 | 0.00 | 0.00 | 39 | 1015.9 |
| 20260831210028 | 96 | 251 | 1.0 | 4.0 | 0.00 | 0.00 | 0.00 | 43 | 1016.1 |
| 20260831204508 | 94 | 324 | 0.0 | 7.0 | 0.00 | 0.00 | 0.00 | 45 | 1016.4 |
| 20260831203018 | 93 | 202 | 0.0 | 4.0 | 0.00 | 0.00 | 0.00 | 44 | 1016.8 |
| 20260831201525 | 93 | 267 | 2.0 | 7.0 | 0.00 | 0.00 | 0.00 | 46 | 1017.1 |
| 20260831200032 | 92 | 179 | 1.0 | 5.0 | 0.00 | 0.00 | 0.00 | 45 | 1017.2 |
| 20260831194558 | 92 | 229 | 3.0 | 8.0 | 0.00 | 0.00 | 0.00 | 45 | 1017.4 |
| 20260831193010 | 92 | 207 | 0.0 | 4.0 | 0.00 | 0.00 | 0.00 | 50 | 1017.4 |
| 20260831191520 | 90 | 213 | 1.0 | 6.0 | 0.00 | 0.00 | 0.00 | 47 | 1017.6 |
| 20260831190025 | 90 | 202 | 1.0 | 4.0 | 0.00 | 0.00 | 0.00 | 49 | 1017.6 |
| 20260831184529 | 90 | 152 | 2.0 | 4.0 | 0.00 | 0.00 | 0.00 | 50 | 1017.9 |
| 20260831183035 | 89 | 87 | 1.0 | 3.0 | 0.00 | 0.00 | 0.00 | 51 | 1017.9 |
| 20260831181515 | 89 | 255 | 0.0 | 4.0 | 0.00 | 0.00 | 0.00 | 51 | 1017.9 |
| 20260831180026 | 88 | 101 | 0.0 | 3.0 | 0.00 | 0.00 | 0.00 | 53 | 1018.1 |
| 20260831174529 | 88 | 296 | 1.0 | 4.0 | 0.00 | 0.00 | 0.00 | 55 | 1018.2 |
| 20260831173029 | 87 | 360 | 1.0 | 4.0 | 0.00 | 0.00 | 0.00 | 55 | 1018.1 |
| 20260831171502 | 86 | 9 | 0.0 | 4.0 | 0.00 | 0.00 | 0.00 | 56 | 1018.3 |
| 20260831170005 | 86 | 327 | 0.0 | 4.0 | 0.00 | 0.00 | 0.00 | 59 | 1018.1 |
| 20260831164510 | 86 | 316 | 2.0 | 5.0 | 0.00 | 0.00 | 0.00 | 59 | 1018.1 |
| 20260831163007 | 86 | 302 | 0.0 | 5.0 | 0.00 | 0.00 | 0.00 | 56 | 1017.9 |
| 20260831161512 | 85 | 326 | 1.0 | 4.0 | 0.00 | 0.00 | 0.00 | 58 | 1017.8 |
| 20260831160003 | 84 | 201 | 0.0 | 3.0 | 0.00 | 0.00 | 0.00 | 57 | 1017.7 |
| 20260831154516 | 83 | 211 | 0.0 | 5.0 | 0.00 | 0.00 | 0.00 | 57 | 1017.6 |
| 20260831153010 | 82 | 183 | 3.0 | 6.0 | 0.00 | 0.00 | 0.00 | 58 | 1017.5 |
| 20260831151512 | 81 | 201 | 1.0 | 6.0 | 0.00 | 0.00 | 0.00 | 61 | 1017.4 |
| 20260831150016 | 80 | 199 | 3.0 | 7.0 | 0.00 | 0.00 | 0.00 | 63 | 1017.4 |
| 20260831144504 | 79 | 166 | 3.0 | 8.0 | 0.00 | 0.00 | 0.00 | 65 | 1017.5 |
| 20260831143007 | 78 | 171 | 4.0 | 7.0 | 0.00 | 0.00 | 0.00 | 67 | 1017.4 |
| 20260831141534 | 77 | 152 | 2.0 | 7.0 | 0.00 | 0.00 | 0.00 | 70 | 1017.4 |
| 20260831140027 | 75 | 164 | 5.0 | 8.0 | 0.00 | 0.00 | 0.00 | 75 | 1017.4 |
| 20260831134534 | 73 | 122 | 3.0 | 7.0 | 0.00 | 0.00 | 0.00 | 82 | 1017.2 |
| 20260831133007 | 72 | 119 | 2.0 | 8.0 | 0.00 | 0.00 | 0.00 | 85 | 1017.0 |
| 20260831131507 | 71 | 146 | 3.0 | 6.0 | 0.00 | 0.00 | 0.00 | 86 | 1017.0 |
| 20260831130010 | 70 | 142 | 2.0 | 4.0 | 0.00 | 0.00 | 0.00 | 86 | 1017.0 |
| 20260831124520 | 70 | 123 | 2.0 | 3.0 | 0.00 | 0.00 | 0.00 | 84 | 1016.8 |
| 20260831123026 | 70 | 169 | 0.0 | 6.0 | 0.00 | 0.00 | 0.00 | 83 | 1016.8 |
| 20260831121505 | 70 | 99 | 1.0 | 3.0 | 0.00 | 0.00 | 0.00 | 83 | 1016.6 |
| 20260831120010 | 70 | 86 | 0.0 | 4.0 | 0.00 | 0.00 | 0.00 | 82 | 1016.6 |
| 20260831114517 | 71 | 73 | 0.0 | 7.0 | 0.00 | 0.00 | 0.00 | 81 | 1016.4 |
| 20260831113024 | 71 | 144 | 2.0 | 8.0 | 0.00 | 0.00 | 0.00 | 80 | 1016.8 |
| 20260831111531 | 71 | 19 | 2.0 | 7.0 | 0.00 | 0.00 | 0.00 | 79 | 1016.7 |
| 20260831110017 | 72 | 139 | 2.0 | 7.0 | 0.00 | 0.00 | 0.00 | 79 | 1017.1 |
| 20260831104514 | 72 | 26 | 1.0 | 5.0 | 0.00 | 0.00 | 0.00 | 78 | 1017.3 |
| 20260831103020 | 72 | 360 | 1.0 | 4.0 | 0.00 | 0.00 | 0.00 | 77 | 1017.4 |
| 20260831101530 | 72 | 311 | 2.0 | 9.0 | 0.00 | 0.00 | 0.00 | 77 | 1017.4 |
| 20260831100032 | 72 | 35 | 3.0 | 6.0 | 0.00 | 0.00 | 0.00 | 77 | 1017.4 |
| 20260831094514 | 72 | 13 | 3.0 | 10.0 | 0.00 | 0.00 | 0.00 | 75 | 1017.4 |
| 20260831093024 | 72 | 347 | 5.0 | 8.0 | 0.00 | 0.00 | 0.00 | 74 | 1017.4 |
| 20260831091523 | 73 | 42 | 4.0 | 8.0 | 0.00 | 0.00 | 0.00 | 72 | 1017.3 |
| 20260831090028 | 73 | 9 | 4.0 | 9.0 | 0.00 | 0.00 | 0.00 | 71 | 1017.2 |
| 20260831084529 | 73 | 334 | 5.0 | 9.0 | 0.00 | 0.00 | 0.00 | 71 | 1017.1 |
| 20260831083020 | 73 | 306 | 6.0 | 11.0 | 0.00 | 0.00 | 0.00 | 76 | 1016.8 |
| 20260831081526 | 73 | 349 | 5.0 | 9.0 | 0.00 | 0.00 | 0.00 | 79 | 1016.8 |
| 20260831080027 | 73 | 226 | 0.0 | 2.0 | 0.00 | 0.00 | 0.00 | 78 | 1016.2 |
| 20260831074534 | 73 | 179 | 0.0 | 3.0 | 0.00 | 0.00 | 0.00 | 78 | 1015.7 |
| 20260831073035 | 73 | 162 | 2.0 | 5.0 | 0.00 | 0.00 | 0.00 | 77 | 1015.6 |
| 20260831071520 | 73 | 121 | 0.0 | 2.0 | 0.00 | 0.00 | 0.00 | 77 | 1015.9 |
| 20260831070035 | 74 | 116 | 1.0 | 2.0 | 0.00 | 0.00 | 0.00 | 77 | 1015.7 |
| 20260831064531 | 74 | 106 | 0.0 | 1.0 | 0.00 | 0.00 | 0.00 | 77 | 1015.7 |
| 20260831063030 | 74 | 106 | 0.0 | 2.0 | 0.00 | 0.00 | 0.00 | 76 | 1015.8 |
| 20260831061532 | 75 | 128 | 0.0 | 2.0 | 0.00 | 0.00 | 0.00 | 75 | 1015.8 |
| 20260831060029 | 75 | 128 | 0.0 | 2.0 | 0.00 | 0.00 | 0.00 | 73 | 1015.8 |
| 20260831054530 | 76 | 106 | 0.0 | 2.0 | 0.00 | 0.00 | 0.00 | 72 | 1015.9 |
| 20260831053034 | 77 | 125 | 0.0 | 2.0 | 0.00 | 0.00 | 0.00 | 71 | 1016.0 |